Погода в Туле

Хотите узнать прогноз погоды в Туле? Тогда Вам сюда: Погода в Туле

Поиск расширенной информации на нашем сайте:

Полезная информация:

Новости сайта



02.01.2020
Опубликован Долгосрочный прогноз погоды по городам России и ближнего зарубежья на январь 2020 года.
Карты: Прогноз на январь и февраль 2020 года, Сравнение прогнозируемой аномалии приземной температуры воздуха на январь 2020 года по разным моделям.




Погода в Туле - сегодня

Время (UTC), дата Ветер
(°,м/с) 
Видим.   Явления Облачность Т
(°С)
Тd
(°С)
f(%) Тe
(°С)
Pmin
(гПа)
dP
(гПа)
Po
(мм)
O2
(г/м3)
Тmin Tmax R s Состояние
почвы
09 04.06.20 200 (Ю) 10 км    6/6 1000 м 
[Cu med, cong]
+19.5 +11.4 59 +24  1003.5  0.3  735  274           
12 04.06.20 190 (Ю) 3{13}  10 км  в посл. час гроза{ливн. осадки}  9/6 1000 м кучево-дожд., средняя 
[Cb calv|Ac trans]
+15.9 +12.3 79 +21  1005.1  1.2  736  278           
15 04.06.20 210 (ЮЗ) 3{11}  10 км    4/3 600 м кучево-дожд., верхняя 
[Cb calv|Ci fib]
+15.7 +10.7 72 +18  1005.7  0.6  736  279         
18 04.06.20 180 (Ю) 3{10}  10 км    3/3 1000 м 
[Sc]
+14.4 +9.7 73 +16  1007.6  1.8  738  281    +19.8     
21 04.06.20 130 (ЮВ) 10 км    ясно 
+10.6 +9.2 91 +12  1008.3  0.3  738  285           
00 05.06.20 150 (ЮВ) 10 км    8/0 верхняя 
[Ci fib]
+11 +8.9 87 +11  1009.6  1.3  739  285           
03 05.06.20 150 (ЮВ) 10 км    6/0 средняя, верхняя 
[Ac trans|Ci fib]
+10.7 +8 83 +11  1010.7  740  285  +10.2         
06 05.06.20 140 (ЮВ) 10 км    8/0 средняя, верхняя 
[Ac trans|Ci fib]
+15.7 +10.4 71 +18  1010.4  -0.2  740  280  +10.2        влажная 
09 05.06.20 170 (Ю) 4{10}  10 км    9/8 600 м кучево-дожд., средняя 
[Cb calv|Ac trans]
+17.4 +10.7 65 +20  1010.2  -0.1  740  278           
12 05.06.20 160 (Ю) 4-10{15}  4000 м  слаб. ливневой дождь{гроза}  10/10 600 м кучево-дожд. 
[Cb calv]
+12.5 +10 85 +13  1010.9  0.3  740  283           
15 05.06.20 160 (Ю) 3{10}  10 км  {ливн. осадки}  6/3 1000 м средняя, верхняя 
[Sc|Ac trans|Ci fib]
+14.2 +11.3 83 +17  1010.5  -0.2  740  281         
18 05.06.20 тихо ()   10 км  {ливн. осадки}  4/0 средняя, верхняя 
[Ac trans|Ci fib]
+12.1 +11.1 94 +15  1010.7  740  283    +17.7     
21 05.06.20 150 (ЮВ) 10 км    3/0 верхняя 
[Ci fib]
+9.9 +9.8 99 +12  1012.2  1.3  741  286           
00 06.06.20 120 (ЮВ) 2000 м  дымка  3/0 верхняя 
[Ci fib]
+9 +8.8 99 +10  1012.7  0.4  741  287           
03 06.06.20 140 (ЮВ) 0500 м  туман  н/о 
+11.3 +11.1 99 +15  1013.2  0.7  742  285  +8.1         
06 06.06.20 140 (ЮВ) 0500 м  туман  ?/?  
+13.7 +13.7 100 +21  1013.4  0.4  742  282  +8.1        влажная 
09 06.06.20 150 (ЮВ) 10 км  {туман}  9/8 600 м кучево-дожд., средняя 
[Cb calv|Ac trans]
+19 +14.9 77 +29  1013.1  0.1  742  276           
12 06.06.20 140 (ЮВ) 10 км  {туман}  10/4 600 м кучево-дожд., средняя, верхняя 
[Cb calv|Ac trans|Ci fib]
+20.9 +15.7 72 +31  1013.3  0.4  742  274           
15 06.06.20 090 (В) 10 км    9/1 600 м кучево-дожд., средняя, верхняя 
[Cb calv|Ac trans|Ci fib]
+21.2 +17.1 77 +34  1012.5  -0.7  742  273           
18 06.06.20 060 (СВ) 10 км    10/9 600 м кучево-дожд., верхняя 
[Cb calv|Ci fib]
+19.2 +17.1 88 +34  1013.2  0.5  742  276    +21.6       
21 06.06.20 030 (СВ) 10 км    9/9 1000 м 
[Sc]
+17.4 +17 97 +32  1013.8  0.4  742  277           
00 07.06.20 340 (С) 4000 м  в посл. час ливневой дождь  9/8 600 м кучево-дожд., верхняя 
[Cb calv|Ci fib]
+16.8 +16.3 97 +29  1014.4  0.5  743  278           
03 07.06.20 тихо ()   2000 м  в посл. час туман  9/6 1000 м верхняя 
[Sc|Ci fib]
+16.9 +16.6 98 +29  1015  0.6  743  278  +15.4    0.0     
06 07.06.20 тихо ()   10 км  {туман}  3/0 верхняя 
[Ci fib]
+23.3 +17.9 72 +38  1015.5  1.1  744  272  +15.4    0.0    влажная 
09 07.06.20 260 (З) 10 км    8/6 1000 м средняя, верхняя 
[Cu med, cong|Ac trans|Ci fib]
+25.6 +18.4 64 +41  1015.8  0.5  744  270           
Время (UTC), дата Ветер
(°,м/с) 
Видим.   Явления Облачность Т
(°С)
Тd
(°С)
f(%) Тe
(°С)
Pmin
(гПа)
dP
(гПа)
Po
(мм)
O2
(г/м3)
Тmin Tmax R s Состояние
почвы

Для получения пояснительной информации подведите курсор к названию столбца.

ПОГОДА в Туле - архив

Всё, что Вы хотите узнать о погоде в Туле - удобно и подробно!

Выберите нужную дату (начиная с 1 января 2019* года) и нажмите кнопку "Найти".
Будут отображены архивные сводки погоды по пункту Тула, начиная с указанной даты.


Отображать данные в формате CSV (для использования в таблицах Excel)


Внимание! Наш архив погоды предназначен исключительно для личного некоммерческого использования в познавательных целях. Если Вам необходимы официальные справки о состоянии погоды (для производственных, юридических, коммерческих и т.п. целей), обращайтесь в органы Росгидромета.

*Примечание: данная дата относится к архиву по метеостанциям СССР (Россия, СНГ, Балтия).
Архив по метеостанциям Зарубежной Европы и Азии (кроме Китая) хранится 10 дней, по другим регионам земного шара (Китай, Африка, Америка, Австралия, Океания) - 1 день.

Тула - район местоположения метеостанции


Название, широта, долгота, высота метеостанции:
Тула 54.2°ш. 37.6°д. 203 м над ур. моря [Российская Федерация]

Дополнительная информация

В oтличие oт бoльшинства пoгoдных сайтoв мы публикуем пoдрoбную метеoинфoрмацию в детальнoм прoфессиoнальнoм фoрмате.

Характеристики температуры и влажнoсти вoздуха измеряются на высoте 2 м в тени вдали oт зданий и деревьев.
Скoрoсть ветра измеряется на высoте 10 м (на урoвне рoста челoвека скoрoсть ветра ниже в 1.5-2 раза). Если метеoстанция нахoдится в гoрoде или в лесу, тo скoрoсть ветра занижена на 2-4 м/с пo сравнению с oткрытым местoм. Скoрoсть ветра над акватoриями крупных рек и oзёр, а также на вершинах хoлмoв на 2-5 м/с выше, чем в oбычных услoвиях.
Атмoсфернoе давление в разных тoчках местнoсти мoжет значительнo oтличаться oт давления на метеoстанции, в зависимoсти oт услoвий рельефа (при пoдъёме на 10 м давление пoнижается примернo на 1 мм рт.ст.).